Cloquet, MN

7:23 PM CST on November 23, 2017 (GMT -0600)
Cloquet Carlton County

Weather History for KCOQ - May, 2013

Change the Weather History Date:

Friday, May 24, 2013

  Actual Average Record
Temperature  
Mean Temperature 48 °F -  
Max Temperature 66 °F 61 °F 82 °F (2014)
Min Temperature 30 °F 39 °F 30 °F (2013)
Degree Days  
Heating Degree Days 17    
Moisture  
Dew Point 25 °F    
Average Humidity 47    
Maximum Humidity 93    
Minimum Humidity 14    
Precipitation  
Precipitation 0.00 in - - ()
Sea Level Pressure  
Sea Level Pressure 30.33 in    
Wind  
Wind Speed 3 mph (SE)    
Max Wind Speed 12 mph    
Max Gust Speed 17 mph    
Visibility 10 miles    
Events      
Averages and records for this station are not official NWS values.
T = Trace of Precipitation, MM = Missing Value Source: NWS Daily Summary

Daily Weather History Graph

Daily Weather History Graph

Search for Another Location

Airport or City:

Trip Planner

Search our weather history database for the weather conditions in past years. The results will help you decide how hot, cold, wet, or windy it might be!

Date:

Astronomy

May. 24, 2013 Rise Set
Actual Time 5:25 AM CDT 8:48 PM CDT
Civil Twilight 4:48 AM CDT 9:25 PM CDT
Nautical Twilight 4:00 AM CDT 10:14 PM CDT
Astronomical Twilight 2:57 AM CDT 11:18 PM CDT
Moon 8:29 PM CDT 5:01 AM CDT
Length of Visible Light 16h 37m
Length of Day
15h 22m
Full, 100% of the Moon is Illuminated
May 24
Full
May 24
Full
May 31
Last Quarter
Jun 8
New
Jun 16
First Quarter

Hourly Weather History & Observations

Time (CDT) Temp. Windchill Dew Point Humidity Pressure Visibility Wind Dir Wind Speed Gust Speed Precip Events Conditions
12:15 AM 33.8 °F - 26.6 °F 75% 30.36 in 10.0 mi Calm Calm - N/A   Clear
12:36 AM 33.8 °F - 26.6 °F 75% 30.36 in 10.0 mi Calm Calm - N/A   Clear
12:56 AM 32.0 °F - 26.6 °F 80% 30.36 in 10.0 mi Calm Calm - N/A   Clear
1:15 AM 30.2 °F - 26.6 °F 86% 30.37 in 10.0 mi Calm Calm - N/A   Clear
1:36 AM 32.0 °F - 26.6 °F 80% 30.36 in 10.0 mi Calm Calm - N/A   Clear
1:56 AM 30.2 °F - 26.6 °F 86% 30.36 in 10.0 mi Calm Calm - N/A   Clear
2:15 AM 30.2 °F - 26.6 °F 86% 30.36 in 10.0 mi Calm Calm - N/A   Clear
2:36 AM 32.0 °F - 26.6 °F 80% 30.36 in 10.0 mi Calm Calm - N/A   Clear
2:56 AM 32.0 °F - 26.6 °F 80% 30.36 in 10.0 mi Calm Calm - N/A   Clear
3:16 AM 32.0 °F - 28.4 °F 87% 30.36 in 10.0 mi Calm Calm - N/A   Clear
3:36 AM 30.2 °F - 26.6 °F 86% 30.36 in 10.0 mi Calm Calm - N/A   Clear
3:56 AM 30.2 °F - 26.6 °F 86% 30.36 in 10.0 mi Calm Calm - N/A   Clear
4:16 AM 30.2 °F - 28.4 °F 93% 30.36 in 10.0 mi Calm Calm - N/A   Clear
4:36 AM 30.2 °F - 28.4 °F 93% 30.37 in 10.0 mi Calm Calm - N/A   Clear
4:56 AM 30.2 °F - 26.6 °F 86% 30.37 in 10.0 mi Calm Calm - N/A   Clear
5:16 AM 30.2 °F - 26.6 °F 86% 30.37 in 10.0 mi Calm Calm - N/A   Clear
5:36 AM 30.2 °F - 26.6 °F 86% 30.37 in 10.0 mi Calm Calm - N/A   Clear
5:56 AM 30.2 °F - 28.4 °F 93% 30.38 in 10.0 mi Calm Calm - N/A   Clear
6:16 AM 33.8 °F - 28.4 °F 81% 30.38 in 10.0 mi Calm Calm - N/A   Clear
6:36 AM 35.6 °F - 28.4 °F 75% 30.38 in 10.0 mi Calm Calm - N/A   Clear
6:56 AM 37.4 °F - 30.2 °F 75% 30.39 in 10.0 mi Calm Calm - N/A   Clear
7:15 AM 39.2 °F 37.0 °F 30.2 °F 70% 30.40 in 10.0 mi ESE 3.5 mph - N/A   Clear
7:36 AM 41.0 °F - 30.2 °F 65% 30.41 in 10.0 mi Calm Calm - N/A   Clear
7:56 AM 42.8 °F - 30.2 °F 61% 30.40 in 10.0 mi Calm Calm - N/A   Clear
8:15 AM 46.4 °F 44.3 °F 28.4 °F 50% 30.40 in 10.0 mi SE 4.6 mph - N/A   Clear
8:36 AM 48.2 °F - 26.6 °F 43% 30.40 in 10.0 mi SSE 5.8 mph - N/A   Clear
8:55 AM 50.0 °F - 24.8 °F 37% 30.40 in 10.0 mi SSW 8.1 mph - N/A   Clear
9:16 AM 51.8 °F - 23.0 °F 33% 30.40 in 10.0 mi South 4.6 mph - N/A   Clear
9:36 AM 53.6 °F - 21.2 °F 28% 30.39 in 10.0 mi SE 8.1 mph - N/A   Clear
9:55 AM 53.6 °F - 23.0 °F 30% 30.38 in 10.0 mi SSE 6.9 mph - N/A   Clear
10:16 AM 55.4 °F - 24.8 °F 31% 30.38 in 10.0 mi SSE 8.1 mph - N/A   Clear
10:36 AM 55.4 °F - 23.0 °F 29% 30.38 in 10.0 mi South 3.5 mph - N/A   Clear
10:55 AM 57.2 °F - 24.8 °F 29% 30.37 in 10.0 mi SE 5.8 mph - N/A   Clear
11:16 AM 57.2 °F - 23.0 °F 27% 30.37 in 10.0 mi SSE 3.5 mph - N/A   Clear
11:36 AM 59.0 °F - 19.4 °F 22% 30.36 in 10.0 mi ESE 8.1 mph - N/A   Clear
11:56 AM 60.8 °F - 19.4 °F 20% 30.35 in 10.0 mi ESE 9.2 mph - N/A   Clear
12:16 PM 60.8 °F - 19.4 °F 20% 30.34 in 10.0 mi SE 5.8 mph - N/A   Clear
12:35 PM 62.6 °F - 19.4 °F 19% 30.34 in 10.0 mi SSW 9.2 mph - N/A   Clear
12:56 PM 62.6 °F - 19.4 °F 19% 30.33 in 10.0 mi SSE 10.4 mph - N/A   Clear
1:14 PM 62.6 °F - 19.4 °F 19% 30.33 in 10.0 mi SSE 5.8 mph - N/A   Clear
1:36 PM 62.6 °F - 19.4 °F 19% 30.32 in 10.0 mi SE 9.2 mph - N/A   Clear
1:55 PM 62.6 °F - 19.4 °F 19% 30.31 in 10.0 mi SE 9.2 mph - N/A   Clear
2:16 PM 64.4 °F - 17.6 °F 16% 30.30 in 10.0 mi SSE 5.8 mph 9.2 mph N/A   Clear
2:36 PM 64.4 °F - 19.4 °F 18% 30.28 in 10.0 mi South 10.4 mph 17.3 mph N/A   Clear
2:55 PM 64.4 °F - 19.4 °F 18% 30.28 in 10.0 mi ESE 9.2 mph - N/A   Clear
3:16 PM 64.4 °F - 17.6 °F 16% 30.26 in 10.0 mi SSE 11.5 mph - N/A   Clear
3:36 PM 64.4 °F - 17.6 °F 16% 30.25 in 10.0 mi SE 5.8 mph 16.1 mph N/A   Clear
3:55 PM 66.2 °F - 15.8 °F 14% 30.25 in 10.0 mi SE 8.1 mph - N/A   Clear
4:16 PM 66.2 °F - 19.4 °F 17% 30.25 in 10.0 mi ESE 9.2 mph - N/A   Clear
4:36 PM 64.4 °F - 21.2 °F 19% 30.25 in 10.0 mi SE 8.1 mph - N/A   Clear
4:56 PM 64.4 °F - 23.0 °F 21% 30.26 in 10.0 mi East 9.2 mph - N/A   Clear
5:16 PM 64.4 °F - 23.0 °F 21% 30.26 in 10.0 mi East 9.2 mph - N/A   Clear
5:36 PM 62.6 °F - 24.8 °F 24% 30.27 in 10.0 mi ESE 9.2 mph - N/A   Clear
5:55 PM 62.6 °F - 24.8 °F 24% 30.27 in 10.0 mi ESE 6.9 mph - N/A   Clear
6:16 PM 60.8 °F - 24.8 °F 25% 30.27 in 10.0 mi East 8.1 mph - N/A   Clear
6:35 PM 59.0 °F - 26.6 °F 29% 30.26 in 10.0 mi ESE 5.8 mph - N/A   Clear
6:56 PM 57.2 °F - 26.6 °F 31% 30.26 in 10.0 mi ESE 5.8 mph - N/A   Clear
7:16 PM 55.4 °F - 26.6 °F 33% 30.26 in 10.0 mi ESE 6.9 mph - N/A   Clear
7:29 PM 55.4 °F - 26.6 °F 33% 30.26 in 10.0 mi ESE 5.8 mph - N/A   Clear
7:56 PM 53.6 °F - 26.6 °F 35% 30.25 in 10.0 mi East 4.6 mph - N/A   Clear
8:16 PM 53.6 °F - - N/A% - 10.0 mi East 3.5 mph - N/A   Clear
8:36 PM 51.8 °F - 24.8 °F 35% 30.26 in - ENE 3.5 mph - N/A   Clear
8:55 PM 51.8 °F - 24.8 °F 35% 30.26 in 10.0 mi Calm Calm - N/A   Clear
9:16 PM 51.8 °F - 24.8 °F 35% 30.27 in 10.0 mi Calm Calm - N/A   Clear
9:36 PM 51.8 °F - 24.8 °F 35% 30.27 in 10.0 mi Calm Calm - N/A   Clear
9:56 PM 48.2 °F - 28.4 °F 46% 30.27 in 10.0 mi Calm Calm - N/A   Clear
10:16 PM 48.2 °F - 26.6 °F 43% 30.27 in 10.0 mi Calm Calm - N/A   Clear
10:36 PM 50.0 °F - 28.4 °F 43% 30.27 in 10.0 mi ESE 3.5 mph - N/A   Clear
10:56 PM 50.0 °F - 26.6 °F 40% 30.27 in 10.0 mi ESE 3.5 mph - N/A   Clear
11:16 PM 48.2 °F - 28.4 °F 46% 30.27 in 10.0 mi ESE 3.5 mph - N/A   Clear
11:35 PM 48.2 °F - 32.0 °F 54% 30.28 in 10.0 mi East 3.5 mph - N/A   Clear
11:56 PM 48.2 °F - 30.2 °F 50% 30.28 in 10.0 mi East 3.5 mph - N/A   Scattered Clouds